ARABSAT-7B (BADR-8)

Last updated on Tue Sep 22 2026 00:03:16 GMT+0000 (Coordinated Universal Time)

1 56757U 23075A 26264.56551103 .00000141 00000+0 00000+0 0 9997 2 56757 0.0784 23.7868 0001628 351.0034 215.2632 1.00273713 12084
UTC large
Height (km)
Speed (km/s)
/
Latitude / Longitude
Inclination (degrees)
Orbital Period (minutes)
Azimuth
Elevation
Range (km)
Doppler Factor

Next 0 passes for location: London (51.5072 / 0.1276)

No passes found over London.
ARABSAT-7B (BADR-8)